Year,Month,Day,Hour,Minute,Value (Times are PST for temperature in C)
2009,07,01,00,00,13.50
2009,07,01,00,01,13.50
2009,07,01,00,02,13.50
2009,07,01,00,03,13.50
2009,07,01,00,04,13.50
2009,07,01,00,05,13.50
2009,07,01,00,06,13.50
2009,07,01,00,07,13.40
2009,07,01,00,08,13.40
2009,07,01,00,09,13.40
2009,07,01,00,10,13.40
2009,07,01,00,11,13.40
2009,07,01,00,12,13.30
2009,07,01,00,13,13.30
2009,07,01,00,14,13.30
2009,07,01,00,15,13.30
2009,07,01,00,16,13.30
2009,07,01,00,17,13.30
2009,07,01,00,18,13.30
2009,07,01,00,19,13.30
2009,07,01,00,20,13.30
2009,07,01,00,21,13.30
2009,07,01,00,22,13.30
2009,07,01,00,23,13.30
2009,07,01,00,24,13.30
2009,07,01,00,25,13.20
2009,07,01,00,26,13.20
2009,07,01,00,27,13.20
2009,07,01,00,28,13.20
2009,07,01,00,29,13.20
2009,07,01,00,30,13.20
2009,07,01,00,31,13.20
2009,07,01,00,32,13.20
2009,07,01,00,33,13.20
2009,07,01,00,34,13.20
2009,07,01,00,35,13.30
2009,07,01,00,36,13.30
2009,07,01,00,37,13.30
2009,07,01,00,38,13.30
2009,07,01,00,39,13.30
2009,07,01,00,40,13.30
2009,07,01,00,41,13.30
2009,07,01,00,42,13.30
2009,07,01,00,43,13.30
2009,07,01,00,44,13.20
2009,07,01,00,45,13.20
2009,07,01,00,46,13.20
2009,07,01,00,47,13.20
2009,07,01,00,48,13.20
2009,07,01,00,49,13.20
2009,07,01,00,50,13.20
2009,07,01,00,51,13.10
2009,07,01,00,52,13.10
2009,07,01,00,53,13.10
2009,07,01,00,54,13.10
2009,07,01,00,55,13.10
2009,07,01,00,56,13.10
2009,07,01,00,57,13.20
2009,07,01,00,58,13.20
2009,07,01,00,59,13.20
2009,07,01,01,00,13.20
2009,07,01,01,01,13.20
2009,07,01,01,02,13.30
2009,07,01,01,03,13.30
2009,07,01,01,04,13.30
2009,07,01,01,05,13.20
2009,07,01,01,06,13.30
2009,07,01,01,07,13.30
2009,07,01,01,08,13.30
2009,07,01,01,09,13.30
2009,07,01,01,10,13.30
2009,07,01,01,11,13.30
2009,07,01,01,12,13.30
2009,07,01,01,13,13.30
2009,07,01,01,14,13.30
2009,07,01,01,15,13.30
2009,07,01,01,16,13.30
2009,07,01,01,17,13.20
2009,07,01,01,18,13.20
2009,07,01,01,19,13.20
2009,07,01,01,20,13.10
2009,07,01,01,21,13.10
2009,07,01,01,22,13.10
2009,07,01,01,23,13.10
2009,07,01,01,24,13.00
2009,07,01,01,25,13.00
2009,07,01,01,26,13.00
2009,07,01,01,27,13.00
2009,07,01,01,28,12.90
2009,07,01,01,29,12.90
2009,07,01,01,30,12.90
2009,07,01,01,31,12.80
2009,07,01,01,32,12.80
2009,07,01,01,33,12.80
2009,07,01,01,34,12.80
2009,07,01,01,35,12.80
2009,07,01,01,36,12.80
2009,07,01,01,37,12.80
2009,07,01,01,38,12.80
2009,07,01,01,39,12.80
2009,07,01,01,40,12.80
2009,07,01,01,41,12.80
2009,07,01,01,42,12.80
2009,07,01,01,43,12.80
2009,07,01,01,44,12.80
2009,07,01,01,45,12.80
2009,07,01,01,46,12.70
2009,07,01,01,47,12.70
2009,07,01,01,48,12.70
2009,07,01,01,49,12.70
2009,07,01,01,50,12.70
2009,07,01,01,51,12.70
2009,07,01,01,52,12.70
2009,07,01,01,53,12.70
2009,07,01,01,54,12.70
2009,07,01,01,55,12.70
2009,07,01,01,56,12.70
2009,07,01,01,57,12.70
2009,07,01,01,58,12.70
2009,07,01,01,59,12.70
2009,07,01,02,00,12.70
2009,07,01,02,01,12.70
2009,07,01,02,02,12.60
2009,07,01,02,03,12.60
2009,07,01,02,04,12.60
2009,07,01,02,05,12.60
2009,07,01,02,06,12.60
2009,07,01,02,07,12.50
2009,07,01,02,08,12.50
2009,07,01,02,09,12.50
2009,07,01,02,10,12.50
2009,07,01,02,11,12.50
2009,07,01,02,12,12.50
2009,07,01,02,13,12.50
2009,07,01,02,14,12.50
2009,07,01,02,15,12.50
2009,07,01,02,16,12.50
2009,07,01,02,17,12.50
2009,07,01,02,18,12.50
2009,07,01,02,19,12.50
2009,07,01,02,20,12.50
2009,07,01,02,21,12.50
2009,07,01,02,22,12.50
2009,07,01,02,23,12.50
2009,07,01,02,24,12.50
2009,07,01,02,25,12.50
2009,07,01,02,26,12.50
2009,07,01,02,27,12.50
2009,07,01,02,28,12.50
2009,07,01,02,29,12.50
2009,07,01,02,30,12.40
2009,07,01,02,31,12.40
2009,07,01,02,32,12.40
2009,07,01,02,33,12.40
2009,07,01,02,34,12.40
2009,07,01,02,35,12.30
2009,07,01,02,36,12.30
2009,07,01,02,37,12.30
2009,07,01,02,38,12.30
2009,07,01,02,39,12.30
2009,07,01,02,40,12.30
2009,07,01,02,41,12.30
2009,07,01,02,42,12.30
2009,07,01,02,43,12.30
2009,07,01,02,44,12.30
2009,07,01,02,45,12.20
2009,07,01,02,46,12.20
2009,07,01,02,47,12.20
2009,07,01,02,48,12.20
2009,07,01,02,49,12.20
2009,07,01,02,50,12.20
2009,07,01,02,51,12.20
2009,07,01,02,52,12.20
2009,07,01,02,53,12.20
2009,07,01,02,54,12.20
2009,07,01,02,55,12.20
2009,07,01,02,56,12.20
2009,07,01,02,57,12.20
2009,07,01,02,58,12.20
2009,07,01,02,59,12.20
2009,07,01,03,00,12.30
2009,07,01,03,01,12.30
2009,07,01,03,02,12.30
2009,07,01,03,03,12.30
2009,07,01,03,04,12.30
2009,07,01,03,05,12.30
2009,07,01,03,06,12.20
2009,07,01,03,07,12.20
2009,07,01,03,08,12.20
2009,07,01,03,09,12.20
2009,07,01,03,10,12.20
2009,07,01,03,11,12.10
2009,07,01,03,12,12.10
2009,07,01,03,13,12.10
2009,07,01,03,14,12.10
2009,07,01,03,15,12.20
2009,07,01,03,16,12.20
2009,07,01,03,17,12.20
2009,07,01,03,18,12.30
2009,07,01,03,19,12.30
2009,07,01,03,20,12.30
2009,07,01,03,21,12.30
2009,07,01,03,22,12.30
2009,07,01,03,23,12.30
2009,07,01,03,24,12.30
2009,07,01,03,25,12.30
2009,07,01,03,26,12.30
2009,07,01,03,27,12.30
2009,07,01,03,28,12.30
2009,07,01,03,29,12.30
2009,07,01,03,30,12.30
2009,07,01,03,31,12.30
2009,07,01,03,32,12.40
2009,07,01,03,33,12.40
2009,07,01,03,34,12.40
2009,07,01,03,35,12.50
2009,07,01,03,36,12.50
2009,07,01,03,37,12.50
2009,07,01,03,38,12.50
2009,07,01,03,39,12.50
2009,07,01,03,40,12.50
2009,07,01,03,41,12.50
2009,07,01,03,42,12.40
2009,07,01,03,43,12.40
2009,07,01,03,44,12.40
2009,07,01,03,45,12.30
2009,07,01,03,46,12.30
2009,07,01,03,47,12.30
2009,07,01,03,48,12.30
2009,07,01,03,49,12.30
2009,07,01,03,50,12.30
2009,07,01,03,51,12.30
2009,07,01,03,52,12.30
2009,07,01,03,53,12.30
2009,07,01,03,54,12.30
2009,07,01,03,55,12.30
2009,07,01,03,56,12.30
2009,07,01,03,57,12.30
2009,07,01,03,58,12.30
2009,07,01,03,59,12.30
2009,07,01,04,00,12.30
2009,07,01,04,01,12.30
2009,07,01,04,02,12.40
2009,07,01,04,03,12.40
2009,07,01,04,04,12.40
2009,07,01,04,05,12.40
2009,07,01,04,06,12.40
2009,07,01,04,07,12.40
2009,07,01,04,08,12.40
2009,07,01,04,09,12.40
2009,07,01,04,10,12.30
2009,07,01,04,11,12.30
2009,07,01,04,12,12.20
2009,07,01,04,13,12.20
2009,07,01,04,14,12.10
2009,07,01,04,15,12.10
2009,07,01,04,16,12.00
2009,07,01,04,17,12.00
2009,07,01,04,18,11.90
2009,07,01,04,19,11.90
2009,07,01,04,20,11.90
2009,07,01,04,21,11.80
2009,07,01,04,22,11.80
2009,07,01,04,23,11.80
2009,07,01,04,24,11.80
2009,07,01,04,25,11.90
2009,07,01,04,26,11.90
2009,07,01,04,27,11.90
2009,07,01,04,28,11.80
2009,07,01,04,29,11.80
2009,07,01,04,30,11.80
2009,07,01,04,31,11.80
2009,07,01,04,32,11.80
2009,07,01,04,33,11.80
2009,07,01,04,34,11.80
2009,07,01,04,35,11.80
2009,07,01,04,36,11.80
2009,07,01,04,37,11.80
2009,07,01,04,38,11.70
2009,07,01,04,39,11.70
2009,07,01,04,40,11.70
2009,07,01,04,41,11.80
2009,07,01,04,42,11.80
2009,07,01,04,43,11.80
2009,07,01,04,44,11.80
2009,07,01,04,45,11.80
2009,07,01,04,46,11.70
2009,07,01,04,47,11.70
2009,07,01,04,48,11.70
2009,07,01,04,49,11.70
2009,07,01,04,50,11.70
2009,07,01,04,51,11.60
2009,07,01,04,52,11.60
2009,07,01,04,53,11.60
2009,07,01,04,54,11.60
2009,07,01,04,55,11.60
2009,07,01,04,56,11.60
2009,07,01,04,57,11.60
2009,07,01,04,58,11.60
2009,07,01,04,59,11.60
2009,07,01,05,00,11.60
2009,07,01,05,01,11.60
2009,07,01,05,02,11.60
2009,07,01,05,03,11.60
2009,07,01,05,04,11.60
2009,07,01,05,05,11.70
2009,07,01,05,06,11.70
2009,07,01,05,07,11.80
2009,07,01,05,08,11.80
2009,07,01,05,09,11.80
2009,07,01,05,10,11.80
2009,07,01,05,11,11.80
2009,07,01,05,12,11.80
2009,07,01,05,13,11.80
2009,07,01,05,14,11.80
2009,07,01,05,15,11.80
2009,07,01,05,16,11.80
2009,07,01,05,17,11.70
2009,07,01,05,18,11.70
2009,07,01,05,19,11.70
2009,07,01,05,20,11.70
2009,07,01,05,21,11.60
2009,07,01,05,22,11.60
2009,07,01,05,23,11.50
2009,07,01,05,24,11.40
2009,07,01,05,25,11.40
2009,07,01,05,26,11.40
2009,07,01,05,27,11.30
2009,07,01,05,28,11.30
2009,07,01,05,29,11.20
2009,07,01,05,30,11.20
2009,07,01,05,31,11.20
2009,07,01,05,32,11.20
2009,07,01,05,33,11.20
2009,07,01,05,34,11.10
2009,07,01,05,35,11.10
2009,07,01,05,36,11.10
2009,07,01,05,37,11.10
2009,07,01,05,38,11.10
2009,07,01,05,39,11.10
2009,07,01,05,40,11.10
2009,07,01,05,41,11.10
2009,07,01,05,42,11.10
2009,07,01,05,43,11.10
2009,07,01,05,44,11.10
2009,07,01,05,45,11.10
2009,07,01,05,46,11.10
2009,07,01,05,47,11.10
2009,07,01,05,48,11.10
2009,07,01,05,49,11.10
2009,07,01,05,50,11.10
2009,07,01,05,51,11.10
2009,07,01,05,52,11.00
2009,07,01,05,53,10.90
2009,07,01,05,54,10.90
2009,07,01,05,55,10.90
2009,07,01,05,56,10.90
2009,07,01,05,57,10.90
2009,07,01,05,58,10.90
2009,07,01,05,59,10.90
2009,07,01,06,00,10.90
2009,07,01,06,01,11.00
2009,07,01,06,02,11.10
2009,07,01,06,03,11.10
2009,07,01,06,04,11.10
2009,07,01,06,05,11.20
2009,07,01,06,06,11.20
2009,07,01,06,07,11.20
2009,07,01,06,08,11.20
2009,07,01,06,09,11.30
2009,07,01,06,10,11.30
2009,07,01,06,11,11.30
2009,07,01,06,12,11.30
2009,07,01,06,13,11.30
2009,07,01,06,14,11.40
2009,07,01,06,15,11.40
2009,07,01,06,16,11.40
2009,07,01,06,17,11.40
2009,07,01,06,18,11.40
2009,07,01,06,19,11.40
2009,07,01,06,20,11.40
2009,07,01,06,21,11.50
2009,07,01,06,22,11.60
2009,07,01,06,23,11.60
2009,07,01,06,24,11.60
2009,07,01,06,25,11.70
2009,07,01,06,26,11.70
2009,07,01,06,27,11.80
2009,07,01,06,28,11.80
2009,07,01,06,29,11.80
2009,07,01,06,30,11.90
2009,07,01,06,31,11.90
2009,07,01,06,32,11.90
2009,07,01,06,33,11.90
2009,07,01,06,34,12.00
2009,07,01,06,35,12.00
2009,07,01,06,36,12.00
2009,07,01,06,37,12.00
2009,07,01,06,38,12.00
2009,07,01,06,39,12.00
2009,07,01,06,40,12.00
2009,07,01,06,41,12.10
2009,07,01,06,42,12.10
2009,07,01,06,43,12.20
2009,07,01,06,44,12.20
2009,07,01,06,45,12.30
2009,07,01,06,46,12.30
2009,07,01,06,47,12.30
2009,07,01,06,48,12.30
2009,07,01,06,49,12.40
2009,07,01,06,50,12.50
2009,07,01,06,51,12.60
2009,07,01,06,52,12.80
2009,07,01,06,53,13.00
2009,07,01,06,54,13.10
2009,07,01,06,55,13.30
2009,07,01,06,56,13.40
2009,07,01,06,57,13.60
2009,07,01,06,58,13.60
2009,07,01,06,59,13.70
2009,07,01,07,00,13.80
2009,07,01,07,01,13.90
2009,07,01,07,02,14.00
2009,07,01,07,03,14.10
2009,07,01,07,04,14.10
2009,07,01,07,05,14.20
2009,07,01,07,06,14.20
2009,07,01,07,07,14.30
2009,07,01,07,08,14.40
2009,07,01,07,09,14.40
2009,07,01,07,10,14.50
2009,07,01,07,11,14.60
2009,07,01,07,12,14.60
2009,07,01,07,13,14.70
2009,07,01,07,14,14.80
2009,07,01,07,15,14.80
2009,07,01,07,16,14.80
2009,07,01,07,17,14.80
2009,07,01,07,18,14.80
2009,07,01,07,19,14.80
2009,07,01,07,20,14.80
2009,07,01,07,21,14.70
2009,07,01,07,22,14.70
2009,07,01,07,23,14.70
2009,07,01,07,24,14.70
2009,07,01,07,25,14.70
2009,07,01,07,26,14.70
2009,07,01,07,27,14.80
2009,07,01,07,28,14.80
2009,07,01,07,29,14.80
2009,07,01,07,30,14.80
2009,07,01,07,31,14.80
2009,07,01,07,32,14.90
2009,07,01,07,33,14.90
2009,07,01,07,34,14.90
2009,07,01,07,35,15.00
2009,07,01,07,36,15.00
2009,07,01,07,37,15.00
2009,07,01,07,38,15.10
2009,07,01,07,39,15.10
2009,07,01,07,40,15.20
2009,07,01,07,41,15.20
2009,07,01,07,42,15.30
2009,07,01,07,43,15.30
2009,07,01,07,44,15.30
2009,07,01,07,45,15.40
2009,07,01,07,46,15.40
2009,07,01,07,47,15.40
2009,07,01,07,48,15.30
2009,07,01,07,49,15.30
2009,07,01,07,50,15.30
2009,07,01,07,51,15.30
2009,07,01,07,52,15.30
2009,07,01,07,53,15.30
2009,07,01,07,54,15.30
2009,07,01,07,55,15.30
2009,07,01,07,56,15.30
2009,07,01,07,57,15.30
2009,07,01,07,58,15.30
2009,07,01,07,59,15.40
2009,07,01,08,00,15.40
2009,07,01,08,01,15.50
2009,07,01,08,02,15.50
2009,07,01,08,03,15.60
2009,07,01,08,04,15.60
2009,07,01,08,05,15.60
2009,07,01,08,06,15.60
2009,07,01,08,07,15.70
2009,07,01,08,08,15.70
2009,07,01,08,09,15.70
2009,07,01,08,10,15.70
2009,07,01,08,11,15.70
2009,07,01,08,12,15.80
2009,07,01,08,13,15.80
2009,07,01,08,14,15.80
2009,07,01,08,15,15.90
2009,07,01,08,16,15.90
2009,07,01,08,17,16.00
2009,07,01,08,18,16.10
2009,07,01,08,19,16.10
2009,07,01,08,20,16.10
2009,07,01,08,21,16.10
2009,07,01,08,22,16.10
2009,07,01,08,23,16.10
2009,07,01,08,24,16.20
2009,07,01,08,25,16.20
2009,07,01,08,26,16.30
2009,07,01,08,27,16.30
2009,07,01,08,28,16.30
2009,07,01,08,29,16.40
2009,07,01,08,30,16.30
2009,07,01,08,31,16.30
2009,07,01,08,32,16.40
2009,07,01,08,33,16.40
2009,07,01,08,34,16.40
2009,07,01,08,35,16.40
2009,07,01,08,36,16.50
2009,07,01,08,37,16.60
2009,07,01,08,38,16.60
2009,07,01,08,39,16.60
2009,07,01,08,40,16.70
2009,07,01,08,41,16.70
2009,07,01,08,42,16.70
2009,07,01,08,43,16.80
2009,07,01,08,44,16.90
2009,07,01,08,45,16.90
2009,07,01,08,46,16.90
2009,07,01,08,47,16.90
2009,07,01,08,48,16.80
2009,07,01,08,49,16.80
2009,07,01,08,50,16.70
2009,07,01,08,51,16.70
2009,07,01,08,52,16.70
2009,07,01,08,53,16.70
2009,07,01,08,54,16.70
2009,07,01,08,55,16.70
2009,07,01,08,56,16.70
2009,07,01,08,57,16.70
2009,07,01,08,58,16.70
2009,07,01,08,59,16.80
2009,07,01,09,00,16.80
2009,07,01,09,01,16.80
2009,07,01,09,02,16.80
2009,07,01,09,03,16.70
2009,07,01,09,04,16.70
2009,07,01,09,05,16.70
2009,07,01,09,06,16.70
2009,07,01,09,07,16.70
2009,07,01,09,08,16.70
2009,07,01,09,09,16.70
2009,07,01,09,10,16.70
2009,07,01,09,11,16.70
2009,07,01,09,12,16.70
2009,07,01,09,13,16.80
2009,07,01,09,14,16.80
2009,07,01,09,15,16.90
2009,07,01,09,16,17.00
2009,07,01,09,17,17.00
2009,07,01,09,18,17.00
2009,07,01,09,19,17.00
2009,07,01,09,20,17.00
2009,07,01,09,21,17.00
2009,07,01,09,22,17.00
2009,07,01,09,23,17.00
2009,07,01,09,24,17.10
2009,07,01,09,25,17.10
2009,07,01,09,26,17.10
2009,07,01,09,27,17.10
2009,07,01,09,28,17.10
2009,07,01,09,29,17.20
2009,07,01,09,30,17.30
2009,07,01,09,31,17.30
2009,07,01,09,32,17.30
2009,07,01,09,33,17.30
2009,07,01,09,34,17.30
2009,07,01,09,35,17.30
2009,07,01,09,36,17.20
2009,07,01,09,37,17.20
2009,07,01,09,38,17.30
2009,07,01,09,39,17.30
2009,07,01,09,40,17.30
2009,07,01,09,41,17.30
2009,07,01,09,42,17.30
2009,07,01,09,43,17.30
2009,07,01,09,44,17.30
2009,07,01,09,45,17.30
2009,07,01,09,46,17.30
2009,07,01,09,47,17.30
2009,07,01,09,48,17.30
2009,07,01,09,49,17.30
2009,07,01,09,50,17.30
2009,07,01,09,51,17.30
2009,07,01,09,52,17.30
2009,07,01,09,53,17.30
2009,07,01,09,54,17.30
2009,07,01,09,55,17.30
2009,07,01,09,56,17.30
2009,07,01,09,57,17.30
2009,07,01,09,58,17.30
2009,07,01,09,59,17.30
2009,07,01,10,00,17.30
2009,07,01,10,01,17.30
2009,07,01,10,02,17.30
2009,07,01,10,03,17.30
2009,07,01,10,04,17.40
2009,07,01,10,05,17.50
2009,07,01,10,06,17.50
2009,07,01,10,07,17.60
2009,07,01,10,08,17.70
2009,07,01,10,09,17.70
2009,07,01,10,10,17.70
2009,07,01,10,11,17.70
2009,07,01,10,12,17.70
2009,07,01,10,13,17.70
2009,07,01,10,14,17.80
2009,07,01,10,15,17.80
2009,07,01,10,16,17.80
2009,07,01,10,17,17.90
2009,07,01,10,18,17.90
2009,07,01,10,19,18.00
2009,07,01,10,20,18.10
2009,07,01,10,21,18.10
2009,07,01,10,22,18.00
2009,07,01,10,23,17.90
2009,07,01,10,24,18.00
2009,07,01,10,25,18.10
2009,07,01,10,26,18.20
2009,07,01,10,27,18.20
2009,07,01,10,28,18.20
2009,07,01,10,29,18.20
2009,07,01,10,30,18.30
2009,07,01,10,31,18.30
2009,07,01,10,32,18.30
2009,07,01,10,33,18.30
2009,07,01,10,34,18.30
2009,07,01,10,35,18.40
2009,07,01,10,36,18.50
2009,07,01,10,37,18.50
2009,07,01,10,38,18.40
2009,07,01,10,39,18.30
2009,07,01,10,40,18.30
2009,07,01,10,41,18.30
2009,07,01,10,42,18.30
2009,07,01,10,43,18.30
2009,07,01,10,44,18.30
2009,07,01,10,45,18.30
2009,07,01,10,46,18.20
2009,07,01,10,47,18.30
2009,07,01,10,48,18.30
2009,07,01,10,49,18.40
2009,07,01,10,50,18.40
2009,07,01,10,51,18.30
2009,07,01,10,52,18.30
2009,07,01,10,53,18.40
2009,07,01,10,54,18.40
2009,07,01,10,55,18.50
2009,07,01,10,56,18.50
2009,07,01,10,57,18.50
2009,07,01,10,58,18.50
2009,07,01,10,59,18.50
2009,07,01,11,00,18.50
2009,07,01,11,01,18.40
2009,07,01,11,02,18.40
2009,07,01,11,03,18.30
2009,07,01,11,04,18.30
2009,07,01,11,05,18.40
2009,07,01,11,06,18.50
2009,07,01,11,07,18.60
2009,07,01,11,08,18.70
2009,07,01,11,09,18.70
2009,07,01,11,10,18.70
2009,07,01,11,11,18.80
2009,07,01,11,12,18.80
2009,07,01,11,13,18.70
2009,07,01,11,14,18.80
2009,07,01,11,15,18.90
2009,07,01,11,16,19.00
2009,07,01,11,17,19.00
2009,07,01,11,18,18.90
2009,07,01,11,19,18.90
2009,07,01,11,20,18.90
2009,07,01,11,21,19.00
2009,07,01,11,22,19.10
2009,07,01,11,23,19.10
2009,07,01,11,24,19.20
2009,07,01,11,25,19.40
2009,07,01,11,26,19.30
2009,07,01,11,27,19.30
2009,07,01,11,28,19.30
2009,07,01,11,29,19.40
2009,07,01,11,30,19.40
2009,07,01,11,31,19.40
2009,07,01,11,32,19.40
2009,07,01,11,33,19.30
2009,07,01,11,34,19.20
2009,07,01,11,35,19.20
2009,07,01,11,36,19.30
2009,07,01,11,37,19.40
2009,07,01,11,38,19.50
2009,07,01,11,39,19.50
2009,07,01,11,40,19.30
2009,07,01,11,41,19.10
2009,07,01,11,42,19.10
2009,07,01,11,43,19.10
2009,07,01,11,44,19.10
2009,07,01,11,45,19.20
2009,07,01,11,46,19.10
2009,07,01,11,47,19.10
2009,07,01,11,48,19.10
2009,07,01,11,49,19.00
2009,07,01,11,50,18.90
2009,07,01,11,51,19.00
2009,07,01,11,52,19.10
2009,07,01,11,53,19.30
2009,07,01,11,54,19.40
2009,07,01,11,55,19.50
2009,07,01,11,56,19.60
2009,07,01,11,57,19.70
2009,07,01,11,58,19.60
2009,07,01,11,59,19.50
2009,07,01,12,00,19.40
2009,07,01,12,01,19.40
2009,07,01,12,02,19.30
2009,07,01,12,03,19.20
2009,07,01,12,04,19.20
2009,07,01,12,05,19.10
2009,07,01,12,06,19.20
2009,07,01,12,07,19.20
2009,07,01,12,08,19.20
2009,07,01,12,09,19.20
2009,07,01,12,10,19.40
2009,07,01,12,11,19.50
2009,07,01,12,12,19.50
2009,07,01,12,13,19.60
2009,07,01,12,14,19.70
2009,07,01,12,15,19.70
2009,07,01,12,16,19.60
2009,07,01,12,17,19.40
2009,07,01,12,18,19.40
2009,07,01,12,19,19.40
2009,07,01,12,20,19.40
2009,07,01,12,21,19.50
2009,07,01,12,22,19.40
2009,07,01,12,23,19.40
2009,07,01,12,24,19.50
2009,07,01,12,25,19.60
2009,07,01,12,26,19.70
2009,07,01,12,27,19.90
2009,07,01,12,28,19.90
2009,07,01,12,29,19.90
2009,07,01,12,30,19.80
2009,07,01,12,31,19.70
2009,07,01,12,32,19.70
2009,07,01,12,33,19.70
2009,07,01,12,34,19.80
2009,07,01,12,35,19.80
2009,07,01,12,36,19.90
2009,07,01,12,37,19.90
2009,07,01,12,38,20.00
2009,07,01,12,39,20.10
2009,07,01,12,40,20.10
2009,07,01,12,41,20.10
2009,07,01,12,42,20.20
2009,07,01,12,43,20.20
2009,07,01,12,44,20.20
2009,07,01,12,45,20.20
2009,07,01,12,46,20.00
2009,07,01,12,47,19.90
2009,07,01,12,48,19.90
2009,07,01,12,49,19.90
2009,07,01,12,50,19.90
2009,07,01,12,51,19.90
2009,07,01,12,52,19.90
2009,07,01,12,53,20.00
2009,07,01,12,54,20.10
2009,07,01,12,55,20.20
2009,07,01,12,56,20.20
2009,07,01,12,57,20.20
2009,07,01,12,58,20.20
2009,07,01,12,59,20.10
2009,07,01,13,00,20.10
2009,07,01,13,01,20.10
2009,07,01,13,02,20.10
2009,07,01,13,03,20.20
2009,07,01,13,04,20.30
2009,07,01,13,05,20.40
2009,07,01,13,06,20.50
2009,07,01,13,07,20.50
2009,07,01,13,08,20.40
2009,07,01,13,09,20.40
2009,07,01,13,10,20.10
2009,07,01,13,11,19.90
2009,07,01,13,12,19.90
2009,07,01,13,13,19.90
2009,07,01,13,14,20.10
2009,07,01,13,15,20.20
2009,07,01,13,16,20.30
2009,07,01,13,17,20.30
2009,07,01,13,18,20.30
2009,07,01,13,19,20.30
2009,07,01,13,20,20.30
2009,07,01,13,21,20.30
2009,07,01,13,22,20.50
2009,07,01,13,23,20.60
2009,07,01,13,24,20.70
2009,07,01,13,25,20.80
2009,07,01,13,26,21.00
2009,07,01,13,27,20.90
2009,07,01,13,28,20.80
2009,07,01,13,29,20.80
2009,07,01,13,30,20.70
2009,07,01,13,31,20.70
2009,07,01,13,32,20.60
2009,07,01,13,33,20.70
2009,07,01,13,34,20.80
2009,07,01,13,35,20.90
2009,07,01,13,36,21.10
2009,07,01,13,37,21.20
2009,07,01,13,38,21.30
2009,07,01,13,39,21.50
2009,07,01,13,40,21.70
2009,07,01,13,41,21.70
2009,07,01,13,42,21.60
2009,07,01,13,43,21.60
2009,07,01,13,44,21.60
2009,07,01,13,45,21.60
2009,07,01,13,46,21.60
2009,07,01,13,47,21.60
2009,07,01,13,48,21.60
2009,07,01,13,49,21.60
2009,07,01,13,50,21.60
2009,07,01,13,51,21.60
2009,07,01,13,52,21.70
2009,07,01,13,53,21.70
2009,07,01,13,54,21.80
2009,07,01,13,55,21.80
2009,07,01,13,56,21.80
2009,07,01,13,57,21.90
2009,07,01,13,58,21.90
2009,07,01,13,59,21.70
2009,07,01,14,00,21.60
2009,07,01,14,01,21.60
2009,07,01,14,02,21.60
2009,07,01,14,03,21.60
2009,07,01,14,04,21.60
2009,07,01,14,05,21.60
2009,07,01,14,06,21.60
2009,07,01,14,07,21.60
2009,07,01,14,08,21.60
2009,07,01,14,09,21.60
2009,07,01,14,10,21.60
2009,07,01,14,11,21.60
2009,07,01,14,12,21.80
2009,07,01,14,13,22.00
2009,07,01,14,14,22.00
2009,07,01,14,15,22.00
2009,07,01,14,16,21.90
2009,07,01,14,17,21.80
2009,07,01,14,18,21.70
2009,07,01,14,19,21.60
2009,07,01,14,20,21.80
2009,07,01,14,21,21.90
2009,07,01,14,22,22.00
2009,07,01,14,23,22.00
2009,07,01,14,24,22.00
2009,07,01,14,25,22.00
2009,07,01,14,26,22.10
2009,07,01,14,27,22.10
2009,07,01,14,28,22.10
2009,07,01,14,29,22.00
2009,07,01,14,30,21.90
2009,07,01,14,31,22.00
2009,07,01,14,32,22.10
2009,07,01,14,33,22.20
2009,07,01,14,34,22.20
2009,07,01,14,35,22.30
2009,07,01,14,36,22.20
2009,07,01,14,37,22.10
2009,07,01,14,38,22.10
2009,07,01,14,39,22.10
2009,07,01,14,40,22.00
2009,07,01,14,41,22.00
2009,07,01,14,42,22.10
2009,07,01,14,43,22.10
2009,07,01,14,44,22.10
2009,07,01,14,45,22.10
2009,07,01,14,46,22.10
2009,07,01,14,47,22.10
2009,07,01,14,48,22.10
2009,07,01,14,49,22.20
2009,07,01,14,50,22.20
2009,07,01,14,51,22.20
2009,07,01,14,52,22.20
2009,07,01,14,53,22.20
2009,07,01,14,54,22.30
2009,07,01,14,55,22.50
2009,07,01,14,56,22.60
2009,07,01,14,57,22.60
2009,07,01,14,58,22.70
2009,07,01,14,59,22.80
2009,07,01,15,00,22.80
2009,07,01,15,01,22.90
2009,07,01,15,02,23.00
2009,07,01,15,03,23.10
2009,07,01,15,04,23.00
2009,07,01,15,05,22.90
2009,07,01,15,06,22.90
2009,07,01,15,07,22.80
2009,07,01,15,08,22.80
2009,07,01,15,09,22.70
2009,07,01,15,10,22.60
2009,07,01,15,11,22.60
2009,07,01,15,12,22.60
2009,07,01,15,13,22.60
2009,07,01,15,14,22.50
2009,07,01,15,15,22.40
2009,07,01,15,16,22.40
2009,07,01,15,17,22.60
2009,07,01,15,18,22.70
2009,07,01,15,19,22.80
2009,07,01,15,20,22.80
2009,07,01,15,21,22.90
2009,07,01,15,22,22.90
2009,07,01,15,23,23.00
2009,07,01,15,24,23.20
2009,07,01,15,25,23.30
2009,07,01,15,26,23.30
2009,07,01,15,27,23.30
2009,07,01,15,28,23.40
2009,07,01,15,29,23.40
2009,07,01,15,30,23.40
2009,07,01,15,31,23.30
2009,07,01,15,32,23.10
2009,07,01,15,33,22.70
2009,07,01,15,34,22.30
2009,07,01,15,35,22.20
2009,07,01,15,36,22.20
2009,07,01,15,37,22.20
2009,07,01,15,38,22.20
2009,07,01,15,39,22.00
2009,07,01,15,40,21.90
2009,07,01,15,41,21.70
2009,07,01,15,42,21.50
2009,07,01,15,43,21.30
2009,07,01,15,44,21.10
2009,07,01,15,45,21.00
2009,07,01,15,46,20.90
2009,07,01,15,47,20.70
2009,07,01,15,48,20.70
2009,07,01,15,49,20.50
2009,07,01,15,50,20.50
2009,07,01,15,51,20.50
2009,07,01,15,52,20.40
2009,07,01,15,53,20.30
2009,07,01,15,54,20.20
2009,07,01,15,55,20.20
2009,07,01,15,56,20.20
2009,07,01,15,57,20.20
2009,07,01,15,58,20.30
2009,07,01,15,59,20.40
2009,07,01,16,00,20.50
2009,07,01,16,01,20.40
2009,07,01,16,02,20.30
2009,07,01,16,03,20.30
2009,07,01,16,04,20.30
2009,07,01,16,05,20.30
2009,07,01,16,06,20.30
2009,07,01,16,07,20.40
2009,07,01,16,08,20.50
2009,07,01,16,09,20.50
2009,07,01,16,10,20.50
2009,07,01,16,11,20.60
2009,07,01,16,12,20.50
2009,07,01,16,13,20.40
2009,07,01,16,14,20.30
2009,07,01,16,15,20.20
2009,07,01,16,16,20.10
2009,07,01,16,17,20.00
2009,07,01,16,18,19.90
2009,07,01,16,19,19.80
2009,07,01,16,20,19.80
2009,07,01,16,21,19.80
2009,07,01,16,22,19.80
2009,07,01,16,23,19.70
2009,07,01,16,24,19.70
2009,07,01,16,25,19.70
2009,07,01,16,26,19.60
2009,07,01,16,27,19.50
2009,07,01,16,28,19.40
2009,07,01,16,29,19.40
2009,07,01,16,30,19.40
2009,07,01,16,31,19.50
2009,07,01,16,32,19.50
2009,07,01,16,33,19.60
2009,07,01,16,34,19.60
2009,07,01,16,35,19.60
2009,07,01,16,36,19.50
2009,07,01,16,37,19.30
2009,07,01,16,38,19.20
2009,07,01,16,39,19.20
2009,07,01,16,40,19.20
2009,07,01,16,41,19.30
2009,07,01,16,42,19.40
2009,07,01,16,43,19.40
2009,07,01,16,44,19.40
2009,07,01,16,45,19.40
2009,07,01,16,46,19.30
2009,07,01,16,47,19.40
2009,07,01,16,48,19.40
2009,07,01,16,49,19.50
2009,07,01,16,50,19.60
2009,07,01,16,51,19.60
2009,07,01,16,52,19.70
2009,07,01,16,53,19.80
2009,07,01,16,54,19.90
2009,07,01,16,55,20.00
2009,07,01,16,56,20.10
2009,07,01,16,57,20.00
2009,07,01,16,58,20.00
2009,07,01,16,59,20.10
2009,07,01,17,00,20.20
2009,07,01,17,01,20.20
2009,07,01,17,02,20.20
2009,07,01,17,03,20.20
2009,07,01,17,04,20.20
2009,07,01,17,05,20.20
2009,07,01,17,06,20.30
2009,07,01,17,07,20.30
2009,07,01,17,08,20.30
2009,07,01,17,09,20.20
2009,07,01,17,10,20.30
2009,07,01,17,11,20.50
2009,07,01,17,12,20.50
2009,07,01,17,13,20.50
2009,07,01,17,14,20.50
2009,07,01,17,15,20.60
2009,07,01,17,16,20.50
2009,07,01,17,17,20.40
2009,07,01,17,18,20.40
2009,07,01,17,19,20.30